千帆星座-39 (QIANFAN-39)

导读

QIANFAN-39 是中国“北斗”卫星导航系统的一部分,主要用于提供高精度定位、导航和授时服务。该卫星由中国自主研发,具备先进的信号传输和抗干扰能力,广泛应用于交通、农业、通信和应急救援等领域。QIANFAN-39 的成功发射进一步提升了北斗系统的全球覆盖能力和稳定性,增强了中国在卫星导航领域的自主可控能力,对国家的经济发展和国防安全具有重要意义。

基本信息
目录编号:
62240
目录名称:
QIANFAN-39
国际标识:
2024-232D
轨道中心:
EARTH
卫星名称:
千帆星座-39
卫星全名:
千帆星座-39 (QIANFAN-39)
卫星状态:
在轨 (已飞行645 天)
发射日期:
2024-12-05 UTC
国别 :
中国 (CN)
星等 :
--
该卫星已列入 空间交会检测服务 Space Conjunction Data Service (SCDS) ,当前飞行风险评估等级: 无高风险
轨道信息
数据来源 国际轨道数据 AOE轨道数据
星历时间 2026-09-11T14:39:49+0800
6小时前
查看轨道信息
2026-09-07T03:00:00+0800
4天前
查看轨道信息
半长轴 7184.761km 7184.773km
偏心率 0.0013846 0.001376
轨道倾角 89.014° 89.013°
近地点辐角 263.694° 280.963°
升交点赤经 6.286° 6.792°
平近点角 96.268° 111.616°
近地点 796.675km 796.749km
远地点 816.573km 816.523km
周期 101.013分钟 101.013分钟
每日圈数 14.255561 14.255525
详细信息
卫星平台:
39
覆盖范围:
全球
运营商:
上海垣信卫星科技有限公司
运营商所在国:
中国
使用方式:
暂无
卫星简介
千帆星座,也被称为“G60星链”计划,是中国版“星链”的重要组成部分,旨在打造一个由1.4万多颗低轨宽频多媒体卫星构成的庞大星座。千帆星座计划由上海垣信卫星科技有限公司负责实施,于2023年启动建设。该项目是我国第二个低轨卫星大星座,旨在通过构建庞大的卫星网络,为全球用户提供高质量的通信和宽带互联网服务。
2D轨道图
3D轨道图
轨道高度分析图
轨道倾角分析图
轨道综合分析图
查看轨道综合分析图
交会数据列表
事件ID 空间交会对象 最接近时刻(TCA) 交会距离 交会风险概率(CRP) 交会风险指数(CRI) 操作
CDM_260913-170903-614806-224021
2026-09-13T
17:09:49+0000
1.215 km
极远距离
1.016589E-5 中风险 0.55
CDM_260913-212705-625206-224021
2026-09-13T
21:27:48+0000
2.828 km
极远距离
1.348857E-6 低风险 0.38
与全量物体交会距离演化趋势
与全量物体交会风险概率演化趋势